Chattooga Whitewater Weather Center

Moon Phase Calendar



Online Cameras

 


      

Current Conditions in Clayton
9/26/2022 2:52:16 AM

62°F
Feels Like 62
Clear
Humidity
87%
Pressure
29.91"
Wind
5 mph (NW)
Dew Point
58°F
UV Index
0/10 (Low)
Visibility
6 mi

Hourly Forecast

Date & Time Mon, Sep 26
2:00 AM
Mon, Sep 26
3:00 AM
Mon, Sep 26
4:00 AM
Mon, Sep 26
5:00 AM
Mon, Sep 26
6:00 AM
Mon, Sep 26
7:00 AM
Mon, Sep 26
8:00 AM
Mon, Sep 26
9:00 AM
Mon, Sep 26
10:00 AM
Mon, Sep 26
11:00 AM
Mon, Sep 26
12:00 PM
Mon, Sep 26
1:00 PM
Mon, Sep 26
2:00 PM
Mon, Sep 26
3:00 PM
Mon, Sep 26
4:00 PM
Mon, Sep 26
5:00 PM
Mon, Sep 26
6:00 PM
Mon, Sep 26
7:00 PM
Mon, Sep 26
8:00 PM
Mon, Sep 26
9:00 PM
Mon, Sep 26
10:00 PM
Mon, Sep 26
11:00 PM
Tue, Sep 27
12:00 AM
Tue, Sep 27
1:00 AM
Tue, Sep 27
2:00 AM
Tue, Sep 27
3:00 AM
Tue, Sep 27
4:00 AM
Tue, Sep 27
5:00 AM
Tue, Sep 27
6:00 AM
Tue, Sep 27
7:00 AM
Tue, Sep 27
8:00 AM
Tue, Sep 27
9:00 AM
Tue, Sep 27
10:00 AM
Tue, Sep 27
11:00 AM
Tue, Sep 27
12:00 PM
Tue, Sep 27
1:00 PM
Tue, Sep 27
2:00 PM
Tue, Sep 27
3:00 PM
Tue, Sep 27
4:00 PM
Tue, Sep 27
5:00 PM
Tue, Sep 27
6:00 PM
Tue, Sep 27
7:00 PM
Tue, Sep 27
8:00 PM
Tue, Sep 27
9:00 PM
Tue, Sep 27
10:00 PM
Tue, Sep 27
11:00 PM
Wed, Sep 28
12:00 AM
Wed, Sep 28
1:00 AM
Condition
Clear

Clear

Clear

Clear

Clear

Clear

Clear

Clear

Clear

Clear

Clear

Clear

Clear

Clear

Clear

Clear

Clear

Clear

Clear

Clear

Clear

Clear

Clear

Clear

Clear

Clear

Clear

Clear

Clear

Clear

Clear

Clear

Clear

Clear

Clear

Clear

Clear

Clear

Clear

Clear

Clear

Clear

Clear

Clear

Clear

Clear

Clear

Clear
Temperature 62°F62°F61°F60°F59°F58°F57°F63°F68°F72°F74°F75°F77°F76°F76°F74°F72°F66°F60°F58°F56°F55°F54°F52°F51°F50°F49°F48°F48°F47°F48°F55°F61°F66°F70°F73°F75°F76°F75°F74°F69°F63°F58°F55°F52°F51°F50°F49°F
Feels Like 62°F62°F61°F60°F59°F57°F57°F63°F68°F71°F73°F74°F75°F75°F74°F73°F71°F64°F58°F56°F54°F53°F52°F50°F49°F48°F47°F46°F45°F44°F45°F52°F59°F64°F67°F71°F73°F74°F74°F72°F67°F60°F56°F52°F49°F48°F48°F47°F
Cloudiness 0%0%0%0%0%1%1%0%0%0%1%1%1%0%0%0%0%0%0%0%0%0%0%0%0%0%0%0%0%0%0%0%0%0%0%0%0%0%0%0%0%0%0%0%0%0%0%1%
Visibility 6 mi6 mi6 mi6 mi6 mi6 mi6 mi6 mi6 mi6 mi6 mi6 mi6 mi6 mi6 mi6 mi6 mi6 mi6 mi6 mi6 mi6 mi6 mi6 mi6 mi6 mi6 mi6 mi6 mi6 mi6 mi6 mi6 mi6 mi6 mi6 mi6 mi6 mi6 mi6 mi6 mi6 mi6 mi6 mi6 mi6 mi6 mi6 mi
Precipitation 5%0%0%0%0%0%0%0%0%0%0%0%0%0%0%0%0%0%0%0%0%0%0%0%0%0%0%0%0%0%0%0%0%0%0%0%0%0%0%0%0%0%0%0%0%0%0%0%
Humidity 89%87%89%90%91%91%90%77%57%40%35%33%30%30%32%33%39%48%55%60%63%64%62%61%61%61%61%62%62%63%64%51%37%27%22%20%19%18%19%21%30%39%41%45%49%50%52%54%
Dew Point 58°F58°F58°F57°F56°F55°F53°F54°F51°F45°F43°F43°F42°F42°F42°F42°F44°F44°F43°F43°F42°F41°F40°F38°F37°F36°F35°F35°F34°F34°F34°F36°F34°F30°F28°F29°F29°F29°F29°F31°F36°F36°F33°F33°F32°F32°F32°F32°F
Pressure 29.91"29.91"29.91"29.91"29.88"29.91"29.91"29.91"29.91"29.91"29.91"29.88"29.88"29.88"29.85"29.85"29.88"29.91"29.91"29.94"29.97"30"30"30"30"30"30"30"30"30.03"30.03"30.03"30.03"30.06"30.03"30.03"30"29.97"29.97"30"30"30.03"30.06"30.09"30.15"30.15"30.15"30.15"
Wind Speed 4.1 mph4.3 mph4.6 mph4.4 mph4.6 mph5.4 mph4.9 mph4.7 mph6.7 mph9.5 mph10.8 mph10.8 mph11.1 mph12 mph11.5 mph10.6 mph9 mph7.1 mph5.7 mph5.4 mph5.8 mph5.7 mph5.8 mph6 mph6 mph5.7 mph5.7 mph5.7 mph5.8 mph5.8 mph5.4 mph4.7 mph4.4 mph4.3 mph5.5 mph4.6 mph4.3 mph5.6 mph5.7 mph7.4 mph9.8 mph8.9 mph8.2 mph7.3 mph6.1 mph6.4 mph6.1 mph5.9 mph
Wind
Direction
321°
NW
323°
NW
326°
NW
324°
NW
321°
NW
324°
NW
320°
NW
312°
NW
302°
WNW
297°
WNW
295°
WNW
292°
WNW
291°
WNW
299°
WNW
301°
WNW
303°
WNW
304°
NW
306°
NW
310°
NW
318°
NW
325°
NW
326°
NW
325°
NW
325°
NW
327°
NNW
327°
NNW
328°
NNW
327°
NNW
327°
NNW
330°
NNW
333°
NNW
335°
NNW
333°
NNW
332°
NNW
336°
NNW
331°
NNW
319°
NW
321°
NW
329°
NNW
342°
NNW
341°
NNW
330°
NNW
333°
NNW
341°
NNW
340°
NNW
335°
NNW
332°
NNW
333°
NNW

Daily Forecast

Date High Low Precip. Humidity
Today
Sep 26

Clear
77 °F
55 °F
10%
33%
Tuesday
Sep 27

Clear
76 °F
47 °F
0%
20%
Wednesday
Sep 28

Clouds
68 °F
48 °F
0%
30%
Thursday
Sep 29

Clouds
69 °F
53 °F
0%
33%
Friday
Sep 30

Rain
65 °F
56 °F
48%
74%
Saturday
Oct 1

Rain
62 °F
61 °F
100%
96%
Sunday
Oct 2

Rain
74 °F
58 °F
100%
58%
Monday
Oct 3

Clouds
70 °F
56 °F
2%
71%
Tuesday
Oct 4

Clear
77 °F
55 °F
0%
43%
Wednesday
Oct 5

Clear
80 °F
57 °F
0%
36%
Thursday
Oct 6

Clouds
81 °F
60 °F
0%
40%
Friday
Oct 7

Clear
80 °F
60 °F
0%
40%
Saturday
Oct 8

Rain
71 °F
60 °F
100%
77%
Sunday
Oct 9

Rain
72 °F
59 °F
100%
80%
Monday
Oct 10

Clear
77 °F
56 °F
0%
44%
Tuesday
Oct 11

Clouds
75 °F
58 °F
0%
49%

Temperature 8-14 Day Outlook



Precipitation 8-14 Day Outlook




Quick Links
Chattooga Whitewater News
Chattooga Whitewater Photos
Chattooga Whitewater Videos




About Us
Contact Us
Site Map
Search Site
Advertise With Us
   
www.ChattoogaRiverWhitewater.com
THE CHATTOOGA WHITEWATER WEBSITE

Copyright 2022, Discover Rivers
Privacy    |    Legal